Miscellaneous Local Product
Issued by NWS Hastings, NE

Home | Current Version | Previous Version | Graphics & Text | Print | Product List | Glossary On
Versions: 1 2 3 4 5 6 7 8 9 10 11 12 13 14 15 16 17 18 19 20 21 22 23 24 25 26 27 28 29 30 31 32 33 34 35 36 37 38 39 40 41 42 43 44 45 46 47 48 49 50
000
AXUS43 KGID 300102
MISGRI

GID CWA HOURLY WEATHER ROUNDUP
NATIONAL WEATHER SERVICE HASTINGS NE
800 PM CDT SAT AUG 29 2015

NOTE: "FAIR" INDICATES FEW OR NO CLOUDS BELOW 12,000 FEET WITH NO
SIGNIFICANT WEATHER AND/OR OBSTRUCTIONS TO VISIBILITY.

...SOUTH CENTRAL NEBRASKA...

CITY           SKY/WX    TMP DP  RH WIND       PRES   REMARKS
GRAND ISLAND   CLEAR     72  65  78 SE5       30.04S
HASTINGS       CLEAR     73  62  68 SE6       30.04S
KEARNEY        CLEAR     73  63  68 SE6       30.04S
ORD            CLEAR     78  61  55 SE8       30.01S
YORK           CLEAR     68  66  94 CALM      30.04S
AURORA         CLEAR     71  67  88 SE3       30.04S
LEXINGTON      CLEAR     79  66  65 SE8       30.05S
HOLDREGE       CLEAR     73  63  72 SE6       30.05S
HEBRON         PTCLDY    71  63  75 SE5       30.03S

...NEBRASKA PANHANDLE...

CITY           SKY/WX    TMP DP  RH WIND       PRES   REMARKS
CHADRON        CLEAR     85  44  23 S10       29.95S HAZE
ALLIANCE       CLEAR     78  45  30 S9        30.03F
SCOTTSBLUFF    CLEAR     82  41  23 SE8       30.02S HAZE
SIDNEY         CLEAR     82  42  24 SE9       30.08F

...WESTERN AND NORTH CENTRAL NEBRASKA...

CITY           SKY/WX    TMP DP  RH WIND       PRES   REMARKS
VALENTINE      CLEAR     83  56  39 S8        29.97S
AINSWORTH      CLEAR     78  61  56 SE7       29.99S
ONEILL         CLEAR     76  62  62 S8        30.00S
BROKEN BOW     CLEAR     78  64  61 SE6       30.04R
IMPERIAL       CLEAR     80  53  39 SE10      30.05S
NORTH PLATTE   CLEAR     74  65  73 E9        30.03S
MCCOOK         PTCLDY    80  56  43 E10       30.04S

...EASTERN NEBRASKA...

CITY           SKY/WX    TMP DP  RH WIND       PRES   REMARKS
NORFOLK        CLEAR     71  66  84 SE5       30.01F
TEKAMAH        PTCLDY    66  64  93 SW3       30.03S
COLUMBUS       PTCLDY   N/A N/A N/A E6        30.02S
ALBION         CLEAR     71  66  85 SE5       30.02F
OMAHA EPPLEY   CLOUDY    69  65  86 CALM      30.03S
OFFUTT AFB     MOCLDY    68  63  83 SW3       30.03R
MILLARD        PTCLDY    69  63  80 CALM      30.04R
LINCOLN        PTCLDY    68  62  81 E6        30.05R
NEBRASKA CITY  CLOUDY    66  64  93 CALM      30.04S
BEATRICE       PTCLDY    65  62  89 E3        30.04S
FALLS CITY     CLEAR     65  62  90 CALM      30.03S

...NORTHERN KANSAS...

CITY           SKY/WX    TMP DP  RH WIND       PRES   REMARKS
GOODLAND       PTCLDY    79  43  27 S8        30.09S
HILL CITY      CLEAR     77  56  48 E7        30.05R
NORTON         CLEAR     75  52  43 E5        30.04S
PHILLIPSBURG   CLEAR     81  57  44 E5        30.04S
SMITH CENTER   CLEAR     73  61  64 E5        30.03F
HAYS           CLEAR     79  55  44 E8        30.03S
RUSSELL        CLEAR     73  63  70 E7        30.02S
CONCORDIA      PTCLDY    68  64  87 SE6       30.03S
SALINA         MOCLDY    72  62  71 E8        30.03S
TOPEKA         CLOUDY    73  67  81 CALM      30.01S



USA.gov is the U.S. government's official web portal to all federal, state and local government web resources and services.